GW4137 Weather Reports


time (UTC)temp
C
wind
direction
speed
KPH
gust
KPH
rain 1hr
cm
rain 24hr
cm
rain mn
cm
humidity
%
barometer
mb
20260508213054 23 292 20.9 48.3 0.00 0.00 0.00 18 1008.1
20260508211550 23 344 17.7 46.7 0.00 0.00 0.00 20 1008.1
20260508210056 23 292 32.2 48.3 0.00 0.00 0.00 19 1008.1
20260508204554 23 302 22.5 48.3 0.00 0.00 0.00 18 1008.1
20260508203052 23 304 22.5 43.5 0.00 0.00 0.00 18 1008.4
20260508201554 23 296 22.5 48.3 0.00 0.00 0.00 20 1008.2
20260508200053 22 248 22.5 43.5 0.00 0.00 0.00 21 1008.3
20260508194605 23 298 24.1 38.6 0.00 0.00 0.00 22 1008.5
20260508193108 22 331 22.5 38.6 0.00 0.00 0.00 21 1008.7
20260508191601 22 288 16.1 33.8 0.00 0.00 0.00 22 1008.7
20260508190108 22 284 22.5 33.8 0.00 0.00 0.00 23 1009.1
20260508184552 22 282 20.9 41.8 0.00 0.00 0.00 23 1009.3
20260508183057 21 246 14.5 27.4 0.00 0.00 0.00 24 1009.7
20260508181602 21 259 14.5 25.7 0.00 0.00 0.00 27 1010.0
20260508180057 20 244 11.3 24.1 0.00 0.00 0.00 32 1010.0
20260508174555 20 262 11.3 22.5 0.00 0.00 0.00 34 1010.3
20260508173055 20 264 14.5 22.5 0.00 0.00 0.00 35 1010.3
20260508171556 19 282 14.5 20.9 0.00 0.00 0.00 36 1010.5
20260508170059 18 287 6.4 20.9 0.00 0.00 0.00 41 1010.7
20260508164604 17 241 11.3 22.5 0.00 0.00 0.00 47 1010.8
20260508163109 17 270 9.7 19.3 0.00 0.00 0.00 49 1011.0
20260508161558 16 250 11.3 20.9 0.00 0.00 0.00 50 1011.2
20260508160055 16 259 11.3 17.7 0.00 0.00 0.00 52 1011.4
20260508154558 15 264 9.7 19.3 0.00 0.00 0.00 55 1011.5
20260508153106 14 254 9.7 14.5 0.00 0.00 0.00 57 1011.8
20260508151556 13 250 4.8 11.3 0.00 0.00 0.00 61 1011.8
20260508150053 12 0 1.6 9.7 0.00 0.00 0.00 65 1011.8
20260508144551 11 209 3.2 9.7 0.00 0.00 0.00 68 1011.8
20260508143111 10 224 4.8 9.7 0.00 0.00 0.00 71 1012.0
20260508141558 10 225 6.4 12.9 0.00 0.00 0.00 72 1012.1
20260508140107 9 220 4.8 8.0 0.00 0.00 0.00 75 1012.1
20260508134553 8 220 3.2 12.9 0.00 0.00 0.00 78 1012.2
20260508133057 6 0 0.0 4.8 0.00 0.00 0.00 80 1012.1
20260508131552 6 0 0.0 4.8 0.00 0.00 0.00 83 1012.1
20260508130052 5 0 0.0 6.4 0.00 0.00 0.00 83 1012.1
20260508124552 5 238 4.8 11.3 0.00 0.00 0.00 84 1012.1
20260508123052 4 0 0.0 0.0 0.00 0.00 0.00 82 1011.9
20260508121550 3 0 0.0 0.0 0.00 0.00 0.00 84 1011.8
20260508120100 3 0 0.0 0.0 0.00 0.00 0.00 84 1011.9
20260508114601 3 0 0.0 0.0 0.00 0.00 0.00 81 1012.0
20260508113101 3 0 0.0 0.0 0.00 0.00 0.00 80 1012.1
20260508111553 4 0 0.0 0.0 0.00 0.00 0.00 80 1012.1
20260508110104 5 0 0.0 0.0 0.00 0.00 0.00 78 1012.1
20260508104552 5 0 0.0 0.0 0.00 0.00 0.00 77 1012.1
20260508103057 6 0 0.0 6.4 0.00 0.00 0.00 77 1012.0
20260508101556 7 345 6.4 19.3 0.00 0.00 0.00 75 1012.1
20260508100126 7 360 12.9 19.3 0.00 0.00 0.00 76 1012.1
20260508094557 7 329 6.4 16.1 0.00 0.00 0.00 73 1012.2
20260508093057 8 325 8.0 16.1 0.00 0.00 0.00 73 1012.0
20260508091608 8 316 6.4 14.5 0.00 0.00 0.00 72 1012.1
20260508090054 8 308 6.4 16.1 0.00 0.00 0.00 70 1012.1
20260508084552 8 313 11.3 19.3 0.00 0.00 0.00 70 1012.2
20260508083055 9 300 9.7 22.5 0.00 0.00 0.00 69 1012.0
20260508081610 9 306 9.7 19.3 0.00 0.00 0.00 68 1012.0
20260508080055 9 309 9.7 22.5 0.00 0.00 0.00 67 1012.0
20260508074554 10 307 8.0 19.3 0.00 0.00 0.00 65 1012.1
20260508073053 10 313 9.7 19.3 0.00 0.00 0.00 62 1012.1
20260508071554 10 309 9.7 19.3 0.00 0.00 0.00 60 1012.1
20260508070054 11 314 11.3 19.3 0.00 0.00 0.00 57 1012.1
20260508064555 11 325 11.3 22.5 0.00 0.00 0.00 55 1011.9
20260508063057 11 328 14.5 22.5 0.00 0.00 0.00 54 1012.0
20260508061549 10 316 6.4 16.1 0.00 0.00 0.00 57 1012.0
20260508054636 10 294 8.0 16.1 0.00 0.00 0.00 60 1011.9
20260508053056 10 286 6.4 12.9 0.00 0.00 0.00 59 1011.6
20260508051554 11 285 9.7 14.5 0.00 0.00 0.00 58 1011.6
20260508050051 11 288 8.0 14.5 0.00 0.00 0.00 56 1011.8
20260508044553 11 285 8.0 12.9 0.00 0.00 0.00 59 1011.8
20260508043056 11 0 0.0 11.3 0.00 0.00 0.00 61 1011.8
20260508041552 12 0 3.2 9.7 0.00 0.00 0.00 59 1011.8
20260508040047 12 278 1.6 12.9 0.00 0.00 0.00 59 1011.9
20260508034552 12 0 0.0 9.7 0.00 0.00 0.00 59 1012.0
20260508033055 13 272 6.4 14.5 0.00 0.00 0.00 57 1012.0
20260508031559 13 279 8.0 14.5 0.00 0.00 0.00 55 1011.9
20260508030108 13 266 8.0 14.5 0.00 0.00 0.00 53 1011.8
20260508024604 14 266 9.7 20.9 0.00 0.00 0.00 52 1011.6
20260508023052 14 265 11.3 29.0 0.00 0.00 0.00 57 1011.2
20260508021556 16 255 12.9 17.7 0.00 0.00 0.00 45 1011.0
20260508020105 16 252 4.8 11.3 0.00 0.00 0.00 40 1010.9
20260508014552 17 0 0.0 8.0 0.00 0.00 0.00 39 1010.8
20260508013059 17 246 4.8 12.9 0.00 0.00 0.00 38 1010.7
20260508011552 18 244 8.0 20.9 0.00 0.00 0.00 38 1010.7
20260508010052 17 248 8.0 19.3 0.00 0.00 0.00 41 1010.8
20260508004549 17 244 4.8 24.1 0.00 0.00 0.00 42 1010.8
20260508003051 18 252 9.7 19.3 0.00 0.00 0.00 39 1011.0
20260508001551 18 246 12.9 24.1 0.00 0.00 0.00 38 1010.9
20260508000051 18 240 20.9 35.4 0.00 0.00 0.00 43 1010.8
20260507234551 18 271 27.4 40.2 0.00 0.00 0.00 41 1010.6
20260507233050 18 264 19.3 33.8 0.00 0.00 0.00 40 1010.5
20260507231555 19 0 9.7 24.1 0.00 0.00 0.00 29 1010.5
20260507230050 20 323 12.9 29.0 0.00 0.00 0.00 29 1010.4
20260507224556 20 352 9.7 24.1 0.00 0.00 0.00 29 1010.6
20260507223054 19 346 12.9 27.4 0.00 0.00 0.00 30 1010.7
20260507221556 20 280 14.5 24.1 0.00 0.00 0.00 30 1010.6
20260507220058 20 269 6.4 16.1 0.00 0.00 0.00 30 1010.7
20260507214558 20 336 4.8 27.4 0.00 0.00 0.00 30 1011.0